This demonstration page uses our WeatherBlox Daily Observations layout. Learn more.

Left ArrowRight Arrow

39.51506, -84.39828

Hourly Observations for June 30, 2015

Temp ( °F °C ) Dew Point ( °F °C ) Humidity (%) Winds ( mph kmh ) Pressure ( in mb ) Visibility ( mi km ) Precip ( " mm )
12:15 am 00:15 Mostly Cloudy with Mist and Fog 64 18 61 16.3 90 90 N N/A 29.83 1010 4 6 N/A
12:35 am 00:35 Cloudy with Mist and Fog 64 18 61 16.3 90 90 N N/A 29.83 1010 5 8 N/A
12:55 am 00:55 Cloudy with Mist and Fog 64 18 61 16.3 90 90 N N/A 29.83 1010 4 6 N/A
1:15 am 01:15 Mostly Cloudy with Mist and Fog 64 18 61 16.3 90 90 N N/A 29.83 1010 4 6 N/A
1:35 am 01:35 Partly Cloudy with Mist and Fog 64 17.7 61 16.2 91 91 N N/A 29.83 1010 4 6 N/A
1:55 am 01:55 Partly Cloudy with Mist and Fog 63 17.3 60 15.7 90 90 N N/A 29.83 1010 4 6 N/A
2:15 am 02:15 Partly Cloudy with Mist and Fog 63 17.3 60 15.6 90 90 N N/A 29.83 1010 4 6 N/A
2:35 am 02:35 Partly Cloudy with Mist and Fog 62 16.8 59 15.2 90 90 N N/A 29.83 1010 3 5 N/A
2:55 am 02:55 Clear with Mist and Fog 63 17.1 60 15.3 89 89 N N/A 29.83 1010 3 5 N/A
3:15 am 03:15 Partly Cloudy with Mist and Fog 62 16.7 59 15.1 90 90 E 3 6 29.83 1010 1 2 N/A
3:35 am 03:35 Cloudy with Fog 63 17 60 15.5 91 91 N N/A 29.83 1010 0 0 N/A
3:55 am 03:55 Cloudy with Fog 62 16.6 59 15.1 91 91 N N/A 29.83 1010 0 0 N/A
4:15 am 04:15 Cloudy with Mist and Fog 62 16.6 59 15.1 91 91 N N/A 29.83 1010 1 2 N/A
4:35 am 04:35 Cloudy with Fog 63 17 60 15.5 91 91 N N/A 29.83 1010 0 0 N/A
4:55 am 04:55 Cloudy with Fog 65 18.1 62 16.6 91 91 N N/A 29.83 1010 0 0 N/A
5:15 am 05:15 Cloudy with Fog 67 19.5 64 18 91 91 N N/A 29.83 1010 0 0 N/A
5:35 am 05:35 Cloudy with Fog 64 18 62 16.5 91 91 N N/A 29.83 1010 0 0 N/A
5:55 am 05:55 Cloudy with Fog 64 18 62 16.5 91 91 N N/A 29.83 1010 0 0 N/A
6:15 am 06:15 Partly Cloudy with Mist and Fog 64 18 62 16.5 91 91 SW 5 7 29.83 1010 1 2 N/A
6:35 am 06:35 Mostly Cloudy with Mist and Fog 64 18 62 16.5 91 91 N N/A 29.83 1010 3 4 N/A
6:55 am 06:55 Cloudy with Mist and Fog 64 18 62 16.6 92 92 N N/A 29.83 1010 3 4 N/A
7:15 am 07:15 Cloudy with Mist and Fog 67 19.5 64 18 91 91 N N/A 29.85 1011 3 5 N/A
7:35 am 07:35 Cloudy with Mist and Fog 67 19.5 64 18 91 91 SW 3 6 29.85 1011 3 5 N/A
7:55 am 07:55 Cloudy with Mist and Fog 69 20.8 67 19.5 92 92 NNW 8 13 29.85 1011 5 8 N/A
8:15 am 08:15 Cloudy with Mist and Fog 69 20.8 67 19.4 92 92 SW 8 13 29.85 1011 5 8 N/A
8:35 am 08:35 undefined N/A N/A N/A undefined N/A N/A N/A N/A
8:55 am 08:55 undefined N/A N/A N/A undefined N/A N/A N/A N/A
9:15 am 09:15 undefined N/A N/A N/A undefined N/A N/A N/A N/A
9:35 am 09:35 undefined N/A N/A N/A undefined N/A N/A N/A N/A
9:55 am 09:55 undefined N/A N/A N/A NNW 6 9 N/A N/A N/A
10:15 am 10:15 Partly Cloudy 72 22.4 67 19.6 84 84 NW 7 11 29.85 1011 10 16 N/A
10:35 am 10:35 Partly Cloudy N/A N/A N/A undefined N/A N/A N/A N/A
10:55 am 10:55 undefined N/A N/A N/A SW 8 13 N/A N/A N/A
11:15 am 11:15 Mostly Cloudy 74 23.6 66 19.1 76 76 SW 8 13 29.85 1011 10 16 N/A
11:35 am 11:35 Mostly Cloudy with Light Rain 74 23.6 67 19.6 78 78 SSW 8 13 29.83 1010 7 11 N/A
11:55 am 11:55 Mostly Cloudy with Heavy Rain 72 22.1 67 19.6 86 86 W 7 11 29.85 1011 3 4 N/A
12:15 pm 12:15 Mostly Cloudy 72 22.3 68 19.8 86 86 WSW 10 17 29.85 1011 10 16 N/A
12:35 pm 12:35 Partly Cloudy 74 23.6 70 20.9 85 85 SW 9 15 29.85 1011 10 16 N/A
12:55 pm 12:55 Partly Cloudy 74 23.6 69 20.3 82 82 SW 8 13 29.83 1010 10 16 N/A
1:15 pm 13:15 Partly Cloudy 77 25.1 69 20.8 77 77 SW 9 15 29.83 1010 10 16 N/A
1:35 pm 13:35 Mostly Cloudy 77 25.1 68 20.2 74 74 WSW 12 19 29.83 1010 10 16 N/A
1:55 pm 13:55 Partly Cloudy 77 25.1 69 20.3 75 75 WSW 8 13 29.83 1010 10 16 N/A
2:15 pm 14:15 Partly Cloudy 77 25.1 69 20.5 76 76 WSW 10 17 29.83 1010 10 16 N/A
2:35 pm 14:35 Partly Cloudy 76 24.7 69 20.7 79 79 WSW 8 13 29.83 1010 10 16 N/A
2:55 pm 14:55 Sunny 74 23.6 68 20 80 80 WSW 8 13 29.83 1010 10 16 N/A
3:15 pm 15:15 Partly Cloudy 74 23.6 69 20.3 82 82 SW 5 7 29.83 1010 10 16 N/A
3:35 pm 15:35 Sunny 74 23.6 66 18.9 75 75 SW 9 15 29.83 1010 10 16 N/A
3:55 pm 15:55 Sunny 74 23.6 67 19.2 76 76 SW 9 15 29.83 1010 10 16 N/A
4:15 pm 16:15 Sunny 74 23.6 64 17.7 70 70 SW 8 13 29.83 1010 10 16 N/A
4:35 pm 16:35 Sunny 74 23.6 63 17.1 67 67 SW 7 11 29.83 1010 10 16 N/A
4:55 pm 16:55 Sunny 74 23.6 64 17.7 70 70 SW 10 17 29.83 1010 10 16 N/A
5:15 pm 17:15 Sunny 74 23.6 65 18.1 71 71 WSW 9 15 29.83 1010 10 16 N/A
5:35 pm 17:35 Sunny 74 23.6 65 18.3 72 72 SW 8 13 29.83 1010 10 16 N/A
5:55 pm 17:55 Sunny 74 23.6 66 18.9 75 75 SW 7 11 29.83 1010 10 16 N/A
6:15 pm 18:15 Sunny 74 23.6 66 18.7 74 74 SSW 9 15 29.83 1010 10 16 N/A
6:35 pm 18:35 Sunny 74 23.6 66 19.1 76 76 SSW 7 11 29.83 1010 10 16 N/A
6:55 pm 18:55 Sunny 74 23.6 65 18.2 72 72 SSW 8 13 29.83 1010 10 16 N/A
7:15 pm 19:15 Partly Cloudy 74 23.6 65 18.5 73 73 SSW 9 15 29.83 1010 10 16 N/A
7:35 pm 19:35 Partly Cloudy 74 23.6 65 18.6 74 74 SW 8 13 29.83 1010 10 16 N/A
8:15 pm 20:15 Partly Cloudy 72 22.3 64 17.7 75 75 SW 7 11 29.83 1010 10 16 N/A
10:15 pm 22:15 Clear 69 20.8 64 18 84 84 SW 5 7 29.83 1010 10 16 N/A
10:35 pm 22:35 Clear 69 20.3 64 17.8 86 86 SSW 7 11 29.85 1011 10 16 N/A
10:55 pm 22:55 Clear 69 20.8 65 18.3 86 86 SSW 8 13 29.88 1012 7 11 N/A
11:15 pm 23:15 Partly Cloudy 69 20.8 65 18.5 87 87 SW 6 9 29.88 1012 7 11 N/A
11:35 pm 23:35 Partly Cloudy 69 20.8 65 18.5 87 87 SW 6 9 29.88 1012 7 11 N/A
11:55 pm 23:55 Clear 69 20.4 65 18.2 87 87 SW 5 7 29.85 1011 7 11 N/A

Powered by AerisWeather